Location: Ponte Samoggia
(44.5667°N, 11.1333°E)
Time: 17:43:52
(UTC+00:00)

Cosmos 2278 Rocket - Pass Details

Date: 26 May 2022
Orbit: 840 x 846 km, 71.0° (Epoch: 06 July)

Event Time Altitude Azimuth Distance (km) Brightness Sun altitude
Rises 01:38:04 0° 317° (NW) 3,414 5.5 -16.4°
Reaches altitude 10° 01:41:37 10° 295° (WNW) 2,472 4.5 -16.0°
Maximum altitude 01:44:36 15° 263° (W) 2,152 3.9 -15.7°
Enters shadow 01:44:57 15° 258° (WSW) 2,156 3.9 -15.7°
